Location: Kernascl�den
(48.0062°N, 3.3198°W)
Time: 11:36:23
(UTC+00:00)

YAOGAN 1 - Pass Details

Date: 21 January 2021
Orbit: 618 x 620 km, 97.9° (Epoch: 06 March)

Event Time Altitude Azimuth Distance (km) Brightness Sun altitude
Rises 18:46:22 0° 164° (SSE) 2,885 5.9 -18.1°
Reaches altitude 10° 18:48:32 10° 164° (SSE) 1,984 5.1 -18.4°
Maximum altitude 18:52:52 87° 74° (ENE) 629 2.5 -19.1°
Drops below altitude 10° 18:57:13 10° 347° (NNW) 2,000 5.2 -19.9°
Sets 18:59:25 0° 347° (NNW) 2,911 6.1 -20.2°
